Weather History for Lexington, KY

Change the Weather History Date:

Friday, May 30, 2014

  Actual Average Record
Temperature  
Mean Temperature 75 °F 68 °F  
Max Temperature 85 °F 78 °F 92 °F (1953)
Min Temperature 65 °F 58 °F 38 °F (1947)
Degree Days  
Heating Degree Days 0 1  
Month to date heating degree days 90 110  
Since 1 July heating degree days 4855 4599  
Cooling Degree Days 10 5  
Month to date cooling degree days 137 78  
Year to date cooling degree days 152 100  
Growing Degree Days 24 (Base 50)    
Moisture  
Dew Point 65 °F    
Average Humidity 74    
Maximum Humidity 93    
Minimum Humidity 55    
Precipitation  
Precipitation 0.00 in 0.18 in 3.36 in (2004)
Month to date precipitation 5.43 5.08  
Year to date precipitation 21.35 19.15  
Snow  
Snow 0.00 in 0.00 in - ()
Month to date snowfall 0.0 0.0  
Since 1 July snowfall 27.1 13.0  
Snow Depth 0.00 in    
Sea Level Pressure  
Sea Level Pressure 30.07 in    
Wind  
Wind Speed 6 mph (ENE)    
Max Wind Speed 14 mph    
Max Gust Speed 17 mph    
Visibility 10 miles    
Events      
T = Trace of Precipitation, MM = Missing Value Source: NWS Daily Summary

Daily Weather History Graph

Daily Weather History Graph

Search for Another Location

Airport:

Trip Planner

Search our weather history database for the weather conditions in past years. The results will help you decide how hot, cold, wet, or windy it might be!

Date:

Astronomy

May. 30, 2014 Rise Set
Actual Time 6:18 AM EDT 8:54 PM EDT
Civil Twilight 5:47 AM EDT 9:24 PM EDT
Nautical Twilight 5:09 AM EDT 10:03 PM EDT
Astronomical Twilight 4:26 AM EDT 10:46 PM EDT
Moon 8:00 AM EDT 10:31 PM EDT
Length of Visible Light 15h 37m
Length of Day
14h 35m
Waxing Crescent, 4% of the Moon is Illuminated
May 30
Waxing Crescent
Jun 5
First Quarter
Jun 13
Full
Jun 19
Last Quarter
Jun 27
New

Hourly Weather History & Observations

Time (EDT) Temp. Heat Index Dew Point Humidity Pressure Visibility Wind Dir Wind Speed Gust Speed Precip Events Conditions
12:54 AM 72.0 °F - 66.0 °F 81% 30.05 in 10.0 mi South 3.5 mph - N/A   Clear
1:54 AM 69.1 °F - 64.9 °F 87% 30.04 in 10.0 mi South 3.5 mph - N/A   Partly Cloudy
2:54 AM 68.0 °F - 64.9 °F 90% 30.04 in 10.0 mi South 4.6 mph - N/A   Clear
3:54 AM 68.0 °F - 64.0 °F 87% 30.04 in 10.0 mi SE 3.5 mph - N/A   Clear
4:54 AM 66.2 °F - 64.4 °F 94% 30.06 in 10.0 mi Calm Calm - N/A   Partly Cloudy
5:54 AM 66.0 °F - 63.0 °F 90% 30.04 in 9.0 mi Calm Calm - N/A   Partly Cloudy
6:54 AM 66.0 °F - 63.0 °F 90% 30.05 in 10.0 mi Calm Calm - N/A   Clear
7:54 AM 71.1 °F - 66.0 °F 84% 30.06 in 10.0 mi Calm Calm - N/A   Clear
8:54 AM 75.0 °F - 66.9 °F 76% 30.07 in 10.0 mi Calm Calm - N/A   Clear
9:54 AM 78.1 °F - 66.9 °F 68% 30.09 in 10.0 mi NNE 6.9 mph - N/A   Clear
10:54 AM 78.1 °F - 66.9 °F 68% 30.10 in 10.0 mi NE 5.8 mph - N/A   Mostly Cloudy
11:54 AM 81.0 °F 83.8 °F 68.0 °F 65% 30.10 in 10.0 mi ENE 5.8 mph - N/A   Mostly Cloudy
12:54 PM 81.0 °F 83.8 °F 68.0 °F 65% 30.10 in 10.0 mi North 6.9 mph - N/A   Mostly Cloudy
1:54 PM 82.4 °F 85.4 °F 68.0 °F 62% 30.11 in 10.0 mi SE 10.4 mph - N/A   Mostly Cloudy
2:54 PM 80.1 °F 82.9 °F 69.1 °F 69% 30.07 in 10.0 mi SE 9.2 mph - N/A   Clear
3:54 PM 81.0 °F 84.1 °F 69.1 °F 67% 30.05 in 10.0 mi Variable 3.5 mph - N/A   Clear
4:54 PM 84.2 °F 86.6 °F 66.2 °F 55% 30.07 in 10.0 mi NE 8.1 mph - N/A   Partly Cloudy
6:54 PM 81.0 °F 82.5 °F 64.0 °F 56% 30.04 in 10.0 mi NE 8.1 mph - N/A   Mostly Cloudy
7:54 PM 79.0 °F - 64.9 °F 62% 30.05 in 10.0 mi NE 9.2 mph - N/A   Clear
8:54 PM 75.9 °F - 64.0 °F 67% 30.06 in 10.0 mi NE 6.9 mph - N/A   Partly Cloudy
9:54 PM 73.9 °F - 62.1 °F 66% 30.07 in 10.0 mi NE 6.9 mph - N/A   Partly Cloudy
10:54 PM 72.0 °F - 61.0 °F 68% 30.10 in 10.0 mi ENE 8.1 mph - N/A   Clear
11:54 PM 72.0 °F - 59.0 °F 64% 30.11 in 10.0 mi ENE 8.1 mph - N/A   Clear